Regional Weather Roundup
Issued by NWS

Home | Current Version | Previous Version | Graphics & Text | Print | Product List | Glossary On
Versions: 1 2 3 4 5 6 7 8 9 10 11 12 13 14 15 16 17 18 19 20 21 22 23 24 25 26 27 28 29 30 31 32 33 34 35 36 37 38 39 40 41 42 43 44 45 46 47 48 49 50
000
ASUS43 KMPX 240210
RWRMN
WEATHER ROUNDUP FOR MINNESOTA
NATIONAL WEATHER SERVICE TWIN CITIES/CHANHASSEN MN
900 PM CDT WED JUL 23 2014


NOTE: "FAIR" INDICATES FEW OR NO CLOUDS BELOW 12,000 FEET WITH NO
SIGNIFICANT WEATHER AND/OR OBSTRUCTIONS TO VISIBILITY. N/A MEANS
CURRENT SKY AND/OR WEATHER CONDITIONS ARE NOT AVAILABLE.

MNZ060>063-068>070-240300-
   Twin Cities Metro

CITY           SKY/WX    TMP DP  RH WIND       PRES   REMARKS
TWIN CITIES    CLEAR     74  51  44 N6        30.16S
ST PAUL        CLEAR     73  52  47 N6        30.16S
CRYSTAL        CLEAR     74  54  49 N3        30.15F
BLAINE         CLEAR     73  57  56 N5        30.17S
LAKEVILLE      CLEAR     68  54  60 W3        30.16F
EDEN PRAIRIE   CLEAR     72  54  53 NW3       30.15F
SOUTH ST PAUL  CLEAR     75  49  39 N3        30.16S
LAKE ELMO      FAIR      72  57  60 CALM      30.17S
$$
MNZ001>005-007-008-013>017-022>024-027-028-240300-
   Northwest Minnesota

CITY           SKY/WX    TMP DP  RH WIND       PRES   REMARKS
BEMIDJI        CLEAR     66  55  67 W3        30.19S
HALLOCK        CLEAR     70  55  60 CALM      30.18F
ROSEAU         PTCLDY    63  55  77 E6        30.20S
WARROAD        CLEAR     66  54  63 E2        30.21S
THIEF RVR FALL CLEAR     66  55  68 W6        30.19F
CROOKSTON      CLEAR     68  61  77 CALM      30.19F
FOSSTON        CLEAR     66  57  72 NW6       30.20S
DETROIT LAKES  CLEAR     70  57  64 CALM      30.21F
MOORHEAD       CLEAR     72  63  73 NE5       30.18F
PARK RAPIDS    CLEAR     67  57  70 NW6       30.20S
$$
MNZ006-009>011-018-025>026-240300-
   North Central Minnesota

CITY           SKY/WX    TMP DP  RH WIND       PRES   REMARKS
BAUDETTE       CLEAR     63  53  70 CALM      30.20F
FLAG ISLAND    CLEAR     66  48  52 E3        30.18F
INTL FALLS     CLEAR     61  54  77 CALM      30.19F
WASKISH        CLEAR     64  54  68 CALM      30.19S
BIG FORK       CLEAR     61  55  82 NE2       30.20F
LONGVILLE      CLEAR     63  57  82 CALM      30.19S
GRAND RAPIDS   MOCLDY    63  55  77 CALM      30.19F
CRANE LAKE     CLEAR     55  54  94 CALM      30.21S
ORR            CLEAR     57  50  77 CALM      30.18S
COOK           CLEAR     61  52  72 CALM      30.21S
$$
MNZ012-019>021-037-240300-
   Northeast Minnesota

CITY           SKY/WX    TMP DP  RH WIND       PRES   REMARKS
DULUTH         PTCLDY    66  54  65 CALM      30.19S
ELY            CLEAR     63  48  59 CALM      30.20F
HIBBING        CLEAR     60  53  77 CALM      30.20S
EVELETH        CLEAR     59  52  77 CALM      30.21S
DULUTH HARBOR  CLEAR     63  57  82 CALM      30.18S
TWO HARBORS    CLEAR     59  54  82 CALM      30.17S
SILVER BAY     CLEAR     57  57 100 CALM      30.17F
GRAND MARAIS     N/A     52  50  93 CALM      30.18F
G MARAIS ARPRT CLEAR     55  48  76 CALM      30.22S
$$
MNZ029>031-032-039>041-046>048-054>057-064-240300-
   West Central Minnesota

CITY           SKY/WX    TMP DP  RH WIND       PRES   REMARKS
FERGUS FALLS   CLEAR     72  55  56 NE3       30.17F
WHEATON        CLEAR     66  61  82 E5        30.19S
MORRIS         CLEAR     68  61  77 CALM      30.17F
ALEXANDRIA     CLEAR     71  55  56 NE5       30.20F
ELBOW LAKE     FAIR      71  60  69 CALM      30.18F
WADENA         CLEAR     64  57  77 N3        30.19F
GLENWOOD       CLEAR     70  59  68 N3        30.20S
APPLETON       CLEAR     72  59  64 CALM      30.17F
BENSON         CLEAR     68  59  73 E3        30.17F
ORTONVILLE     CLEAR     72  59  64 E3        30.17F
MADISON        CLEAR     72  59  64 E5        30.17F
WILLMAR        FAIR      72  55  56 CALM      30.19S
$$
MNZ033>034-036-042>043-049>051-058-059-240300-
   Central Minnesota

CITY           SKY/WX    TMP DP  RH WIND       PRES   REMARKS
ST CLOUD       CLEAR     69  57  65 CALM      30.17F
SAUK CENTRE    FAIR      71  57  62 CALM      30.19S
PAYNESVILLE    CLEAR     68  54  60 CALM      30.18F
AITKIN         CLEAR     63  55  77 CALM      30.17F
PINE RIVER     CLEAR     66  59  77 CALM      30.21F
BRAINERD       CLEAR     68  57  68 CALM      30.19F
STAPLES        CLEAR     66  57  72 CALM      30.19S
LONG PRAIRIE   FAIR      68  59  73 CALM      30.19F
LITTLE FALLS   CLEAR     64  55  72 CALM      30.18F
LITCHFIELD     CLEAR     70  55  60 CALM      30.19S
BUFFALO        CLEAR     72  53  51 CALM      30.18F
MAPLE LAKE     CLEAR     69  58  69 CALM      30.18F
$$
MNZ037-044-045-052-053-240300-
   East Central Minnesota

CITY           SKY/WX    TMP DP  RH WIND       PRES   REMARKS
PRINCETON      CLEAR     68  57  68 CALM      30.18S
MORA           CLEAR     64  55  72 CALM      30.19F
CAMBRIDGE      CLEAR     70  55  60 CALM      30.16S
RUSH CITY      PTCLDY    65  58  78 CALM      30.18S
MOOSE LAKE     CLEAR     63  59  88 CALM      30.16S
HINCKLEY       FAIR      64  63  94 CALM      30.17S
CLOQUET        CLEAR     63  54  72 CALM      30.19S
MCGREGOR       PTCLDY    68  59  73 CALM      30.18F
$$
MNZ071>073-080-081-089-090-097-098-240300-
   Southwest Minnesota

CITY           SKY/WX    TMP DP  RH WIND       PRES   REMARKS
MONTEVIDEO     CLEAR     72  57  60 CALM      30.18F
GRANITE FALLS  CLEAR     71  56  60 N3        30.19S
CANBY          CLEAR     69  61  74 E3        30.19S
MARSHALL       CLEAR     72  55  56 NE7         N/A
REDWOOD FALLS  CLEAR     73  54  51 CALM      30.17F
OLIVIA         CLEAR     72  55  56 CALM      30.17S
PIPESTONE      CLEAR     72  55  56 E3        30.19F
WINDOM         CLEAR     70  59  68 CALM      30.18F
WORTHINGTON    CLEAR     70  57  64 NE5       30.20F
JACKSON        CLEAR     68  55  64 E3        30.19S
TRACY          CLEAR     71  58  64 CALM      30.19S
SLAYTON        CLEAR     71  54  56 CALM      30.20F
$$
MNZ065>067-074>077-082>085-091>093-240300-
   South Central Minnesota

CITY           SKY/WX    TMP DP  RH WIND       PRES   REMARKS
MANKATO        CLEAR     72  54  53 N7        30.17S
NEW ULM        CLEAR     73  55  53 NE5       30.16F
ST JAMES       CLEAR     72  57  60 NE3       30.17F
FAIRMONT       CLEAR     70  54  56 N5        30.17F
GLENCOE        CLEAR     71  50  47 CALM      30.17S
FARIBAULT      CLEAR     70  54  56 N3        30.17F
OWATONNA       CLEAR     70  55  60 CALM      30.17F
WASECA         CLEAR     66  54  63 N5        30.19S
ALBERT LEA     CLEAR     70  57  64 CALM      30.17F
$$
MNZ078>079-086>088-094>096-240300-
   Southeast Minnesota

CITY           SKY/WX    TMP DP  RH WIND       PRES   REMARKS
ROCHESTER      PTCLDY    69  55  60 N6        30.18S
RED WING       CLEAR     68  59  73 N3        30.15S
STANTON        CLEAR     71  55  55 E3        30.15F
DODGE CENTER   PTCLDY    72  57  60 N5        30.18S
WINONA         CLEAR     72  61  68 CALM      30.15S
AUSTIN         CLEAR     72  57  60 CALM      30.17S
PRESTON        CLEAR     68  61  76 N3        30.18S
$$
ABBREVIATIONS USED IN REMARKS
   TC - TEMPERATURES IN CELSIUS
  WCI - WIND CHILL INDEX
   HX - HEAT INDEX
  VSB - VISIBILITY
$$



USA.gov is the U.S. government's official web portal to all federal, state and local government web resources and services.